This demonstration page uses our WeatherBlox Daily Observations layout. Learn more.

Left ArrowRight Arrow

Hourly Observations for March 18, 2017

Temp ( °F °C ) Dew Point ( °F °C ) Humidity (%) Winds ( mph kmh ) Pressure ( in mb ) Visibility ( mi km ) Precip ( " mm )
12:19 am 00:19 Cloudy with Fog 41 5 41 5 100 100 WNW 5 7 30.09 1019 1 1 N/A
12:53 am 00:53 Mostly Cloudy with Fog 41 5 41 5 100 100 N N/A 30.08 1019 1 1 N/A
1:26 am 01:26 Cloudy with Mist and Fog 42 5.6 42 5.6 100 100 N N/A 30.09 1019 1 2 N/A
1:53 am 01:53 Cloudy with Mist and Fog 42 5.6 42 5.6 100 100 N N/A 30.09 1019 2 2 N/A
2:17 am 02:17 Cloudy with Mist and Fog 43 6.1 43 6.1 100 100 N N/A 30.09 1019 2 3 N/A
2:30 am 02:30 Cloudy with Mist and Fog 43 6.1 43 6.1 100 100 N N/A 30.09 1019 3 4 N/A
2:53 am 02:53 Cloudy with Mist and Fog 43 6.1 43 6.1 100 100 N N/A 30.09 1019 2 3 N/A
3:28 am 03:28 Cloudy with Mist and Fog 43 6.1 43 6.1 100 100 N N/A 30.09 1019 3 4 N/A
3:40 am 03:40 Cloudy with Mist and Fog 43 6.1 43 6.1 100 100 N N/A 30.09 1019 2 2 N/A
3:53 am 03:53 Cloudy with Mist and Fog 43 6.1 43 6.1 100 100 N N/A 30.06 1018 1 2 N/A
4:02 am 04:02 Cloudy with Mist and Fog 44 6.7 44 6.7 100 100 SSW 3 6 30.09 1019 2 3 N/A
4:10 am 04:10 Cloudy with Mist and Fog 44 6.7 44 6.7 100 100 SSW 3 6 30.09 1019 3 5 N/A
4:35 am 04:35 Cloudy with Mist and Fog 42 5.6 42 5.6 100 100 N N/A 30.09 1019 3 4 N/A
4:53 am 04:53 Cloudy with Mist and Fog 43 6.1 43 6.1 100 100 N N/A 30.05 1018 2 3 N/A
5:00 am 05:00 Cloudy with Mist and Fog 42 5.6 42 5.6 100 100 N N/A 30.09 1019 2 3 N/A
5:04 am 05:04 Cloudy with Mist and Fog 42 5.6 42 5.6 100 100 WNW 3 6 30.09 1019 2 3 N/A
5:15 am 05:15 Cloudy with Mist and Fog 44 6.7 44 6.7 100 100 N N/A 30.09 1019 2 3 N/A
5:17 am 05:17 Cloudy with Mist and Fog 44 6.7 44 6.7 100 100 N N/A 30.09 1019 2 3 N/A
5:26 am 05:26 Cloudy with Mist and Fog 44 6.7 44 6.7 100 100 W 5 7 30.09 1019 2 3 N/A
5:48 am 05:48 Cloudy with Mist and Fog 45 7 45 7 100 100 SW 3 6 30.06 1018 2 3 N/A
5:53 am 05:53 Cloudy with Mist and Fog 45 7.2 45 7.2 100 100 SW 5 7 30.05 1018 2 2 N/A
6:14 am 06:14 Cloudy with Mist and Fog 45 7.2 45 7.2 100 100 WSW 3 6 30.06 1018 1 1 N/A
6:53 am 06:53 Mostly Cloudy with Fog 45 7.2 45 7.2 100 100 N N/A 30.04 1017 0 0 N/A
7:27 am 07:27 Cloudy with Mist and Fog 45 7.2 45 7.2 100 100 WNW 5 7 30.06 1018 1 2 N/A
7:31 am 07:31 Cloudy with Mist and Fog 44 6.7 44 6.7 100 100 WNW 6 9 30.06 1018 2 3 N/A
7:34 am 07:34 Cloudy with Mist and Fog 44 6.7 44 6.7 100 100 W 7 11 30.06 1018 3 5 N/A
7:53 am 07:53 Mostly Cloudy 43 6.1 42 5.6 97 97 NW 9 15 30.06 1018 7 11 N/A
8:53 am 08:53 Cloudy 42 5.6 36 2.2 79 79 WNW 14 22 30.09 1019 10 16 N/A
9:19 am 09:19 Cloudy 41 5 34 1.1 76 76 NW 18 30 30.09 1019 10 16 N/A
9:53 am 09:53 Cloudy 41 5 33 0.6 73 73 WNW 14 22 30.11 1020 10 16 N/A
10:53 am 10:53 Cloudy 41 5 32 undefined 70 70 W 12 19 30.12 1020 10 16 N/A
11:35 am 11:35 Cloudy 40 4.4 31 -0.6 70 70 WNW 13 20 30.12 1020 10 16 N/A
11:53 am 11:53 Cloudy 39 3.9 32 undefined 76 76 W 12 19 30.14 1021 10 16 N/A
12:53 pm 12:53 Cloudy 40 4.4 34 1.1 79 79 WNW 16 26 30.14 1021 10 16 N/A
1:53 pm 13:53 Cloudy 40 4.4 35 1.7 83 83 WNW 14 22 30.16 1021 9 14 N/A
2:53 pm 14:53 Cloudy 41 5 36 2.2 82 82 W 13 20 30.16 1021 10 16 N/A
3:53 pm 15:53 Cloudy 41 5 35 1.7 79 79 W 10 17 30.17 1022 10 16 N/A
4:53 pm 16:53 Cloudy 41 5 35 1.7 79 79 WNW 12 19 30.19 1022 10 16 N/A
5:20 pm 17:20 Cloudy 41 5 35 1.7 79 79 W 12 19 30.18 1022 10 16 N/A
5:45 pm 17:45 Cloudy 41 5 35 1.7 79 79 W 12 19 30.21 1023 10 16 N/A
5:53 pm 17:53 Cloudy 41 5 34 1.1 76 76 W 9 15 30.21 1023 10 16 N/A
6:53 pm 18:53 Cloudy 41 5 34 1.1 76 76 WNW 10 17 30.23 1024 10 16 N/A
7:15 pm 19:15 Cloudy 41 5 34 1.1 76 76 W 8 13 30.24 1024 10 16 N/A
7:37 pm 19:37 Cloudy 41 5 34 1.1 76 76 W 8 13 30.24 1024 10 16 N/A
7:53 pm 19:53 Cloudy 41 5 35 1.7 79 79 W 7 11 30.26 1025 10 16 N/A
8:53 pm 20:53 Cloudy 41 5 34 1.1 76 76 W 6 9 30.26 1025 10 16 N/A
9:53 pm 21:53 Cloudy 40 4.4 33 0.6 77 77 WNW 8 13 30.28 1025 10 16 N/A
10:11 pm 22:11 Cloudy 40 4.4 33 0.6 77 77 WNW 8 13 30.27 1025 10 16 N/A
10:53 pm 22:53 Cloudy 40 4.4 33 0.6 77 77 WNW 8 13 30.29 1026 10 16 N/A
11:01 pm 23:01 Cloudy 40 4.4 33 0.6 77 77 NW 6 9 30.27 1025 10 16 N/A
11:53 pm 23:53 Mostly Cloudy 37 2.8 32 undefined 82 82 WNW 3 6 30.29 1026 10 16 N/A

Powered by AerisWeather